TimeEDT,TemperatureF,Dew PointF,Humidity,Sea Level PressureIn,VisibilityMPH,Wind Direction,Wind SpeedMPH,Gust SpeedMPH,PrecipitationIn,Events,Conditions,WindDirDegrees,DateUTC
12:53 AM,50.0,45.0,83,29.80,10.0,WSW,8.1,-,N/A,,Clear,240,2012-10-01 04:53:00
1:53 AM,50.0,45.0,83,29.81,10.0,WSW,6.9,-,N/A,,Clear,250,2012-10-01 05:53:00
2:53 AM,50.0,45.0,83,29.80,10.0,WSW,6.9,-,N/A,,Clear,240,2012-10-01 06:53:00
3:53 AM,50.0,45.0,83,29.81,10.0,SW,9.2,-,N/A,,Clear,230,2012-10-01 07:53:00
4:53 AM,50.0,45.0,83,29.81,10.0,West,5.8,-,N/A,,Clear,260,2012-10-01 08:53:00
5:53 AM,50.0,45.0,83,29.81,10.0,WSW,6.9,-,N/A,,Clear,240,2012-10-01 09:53:00
6:53 AM,48.9,44.1,83,29.83,10.0,SW,6.9,-,N/A,,Clear,230,2012-10-01 10:53:00
8:53 AM,55.0,46.0,72,29.85,10.0,SW,11.5,19.6,N/A,,Clear,230,2012-10-01 12:53:00
9:53 AM,59.0,46.0,62,29.86,10.0,West,6.9,23.0,N/A,,Mostly Cloudy,280,2012-10-01 13:53:00
10:53 AM,61.0,46.9,60,29.87,10.0,West,11.5,19.6,N/A,,Mostly Cloudy,280,2012-10-01 14:53:00
11:53 AM,59.0,46.9,64,29.88,10.0,WSW,10.4,16.1,N/A,,Overcast,250,2012-10-01 15:53:00
12:53 PM,62.1,48.0,60,29.88,10.0,Variable,6.9,16.1,N/A,,Overcast,0,2012-10-01 16:53:00
1:53 PM,64.9,48.0,54,29.86,10.0,West,11.5,18.4,N/A,,Partly Cloudy,280,2012-10-01 17:53:00
3:53 PM,66.0,48.9,54,29.88,10.0,WSW,8.1,18.4,N/A,,Partly Cloudy,240,2012-10-01 19:53:00
4:53 PM,66.9,48.9,52,29.88,10.0,West,10.4,-,N/A,,Clear,260,2012-10-01 20:53:00
6:53 PM,57.0,52.0,83,29.93,10.0,SW,4.6,-,N/A,,Clear,230,2012-10-01 22:53:00
7:53 PM,55.0,51.1,86,29.95,10.0,WSW,3.5,-,N/A,,Clear,240,2012-10-01 23:53:00
8:53 PM,53.1,50.0,89,29.98,10.0,Calm,Calm,-,N/A,,Clear,0,2012-10-02 00:53:00
9:53 PM,52.0,48.9,89,29.99,10.0,SW,3.5,-,N/A,,Clear,230,2012-10-02 01:53:00
11:53 PM,52.0,50.0,93,29.99,10.0,Calm,Calm,-,N/A,,Clear,0,2012-10-02 03:53:00